Theta_e
296 297 295 294 294 295 294 296 292 295 294 299 302 303 303 305 305 305 306 307 308 309 309 310 311 313 314 315 317 319 318 318 321 328 327 326 326 328 331 336 338 337 335 339
292 296 295 292 294 295 295 294 294 295 295 301 302 303 302 303 303 303 305 306 307 308 309 310 311 311 312 314 315 318 317 317 319 324 325 323 324 324 327 330 331 336 336 336
289 294 293 289 294 294 295 296 295 291 296 301 299 300 302 303 304 304 305 306 306 307 308 310 311 312 312 312 314 315 316 317 317 320 323 322 321 321 323 326 328 328 331 335
290 292 282 293 298 296 293 295 298 297 298 300 301 303 304 305 305 306 306 306 307 308 309 310 311 311 312 312 313 313 313 315 317 316 319 322 320 321 323 326 326 327 327 327
288 287 291 293 295 294 293 293 298 297 299 300 302 303 303 307 307 306 307 307 308 309 310 310 310 311 311 311 312 311 312 313 316 316 316 320 321 323 322 323 324 324 324 326
290 284 281 293 297 300 299 290 301 300 300 300 301 296 299 306 307 307 308 308 308 308 307 308 309 310 310 309 310 310 311 313 315 317 317 317 322 325 323 324 323 320 321 325
288 287 291 297 299 300 288 294 302 303 301 301 298 301 305 307 307 308 307 308 308 306 307 307 307 308 305 305 306 310 312 313 314 315 318 319 324 325 324 324 322 322 322 326
290 287 284 301 299 293 301 304 303 303 302 301 303 304 305 305 304 305 306 304 306 304 305 308 309 307 305 306 309 310 310 312 313 314 314 316 324 325 322 322 320 321 323 321
294 294 301 304 303 306 306 304 303 303 303 302 301 301 303 302 303 303 305 304 307 303 304 307 307 310 307 308 310 310 310 311 311 311 313 315 320 321 323 321 316 315 313 313
297 299 299 302 304 304 304 303 304 305 303 303 301 302 302 304 301 303 304 303 305 304 306 305 308 309 310 310 311 311 309 310 311 311 309 311 314 320 321 318 314 313 312 312
296 298 300 301 302 304 304 304 304 304 304 302 303 303 303 304 302 304 304 304 305 304 305 306 309 308 310 310 312 312 310 311 311 310 311 311 314 314 321 323 312 313 314 315
294 299 300 300 302 303 303 304 304 303 303 304 303 301 302 301 302 304 303 304 304 306 305 308 307 308 310 312 312 312 311 310 311 311 311 313 314 311 301 300 297 295 293 297
299 303 302 304 305 305 304 303 304 303 303 300 301 302 302 301 303 303 303 304 305 304 305 306 306 307 310 311 311 310 311 312 312 309 310 312 313 308 310 300 295 293 293 294
303 303 301 302 302 305 305 302 302 302 302 300 302 302 300 300 301 301 301 303 306 305 306 308 308 308 309 310 310 309 311 303 310 310 312 311 312 310 306 306 309 311 296 298
302 304 304 305 303 300 301 302 300 297 298 299 301 301 300 298 298 300 303 305 307 306 306 307 306 307 308 308 307 307 308 310 310 312 314 310 310 312 312 310 309 310 311 300
303 303 303 300 299 299 300 299 298 297 298 299 299 299 300 300 299 301 303 305 303 304 305 306 307 307 308 308 308 308 309 303 300 308 311 311 310 309 310 310 309 310 307 310
301 300 300 298 298 298 299 298 299 297 296 297 297 299 299 298 299 299 301 302 304 304 307 306 306 307 307 307 307 307 309 307 297 307 306 308 308 308 306 308 309 307 307 302
304 303 302 300 300 299 298 297 298 298 297 296 296 296 295 295 295 297 298 298 301 304 305 306 307 306 306 306 305 302 303 302 304 307 306 307 308 306 306 306 306 306 306 302
302 301 300 300 301 300 297 297 298 299 299 297 296 296 295 295 296 296 296 296 298 300 304 305 300 302 303 300 298 300 300 300 302 305 307 301 308 307 305 304 305 304 303 301
301 301 302 301 300 299 297 299 299 299 298 298 298 297 294 295 296 296 295 294 296 301 304 305 302 302 299 298 295 301 303 301 300 305 307 306 306 304 303 297 299 298 296 296
300 301 300 300 300 300 299 300 298 297 297 299 299 297 298 294 295 295 294 293 297 303 302 298 302 299 297 294 298 301 302 301 304 305 306 302 302 300 298 296 296 295 295 296
301 302 300 300 300 300 301 301 299 299 298 299 298 298 296 294 294 295 296 294 298 291 300 303 301 292 294 291 298 299 300 299 299 299 298 297 296 295 295 295 294 294 295 296
302 302 302 301 301 302 302 301 300 299 300 300 299 299 295 294 295 293 292 300 302 299 303 303 290 289 289 299 298 297 297 296 296 296 295 295 295 294 294 294 294 295 296 297
302 303 303 303 303 302 300 302 302 301 301 301 302 296 295 295 296 299 302 297 290 295 301 298 293 289 290 300 297 296 296 295 294 294 295 292 294 294 295 296 298 298 299 297
303 304 304 302 300 302 303 303 302 300 300 301 301 303 301 302 302 305 306 305 292 299 303 289 288 289 301 300 298 297 296 295 295 295 295 296 296 296 296 298 297 298 298 297
304 303 304 303 302 302 302 304 298 299 300 299 300 302 303 304 304 305 305 300 304 297 302 300 300 300 301 300 299 300 297 295 295 297 297 297 297 296 296 296 296 296 296 297
304 300 303 302 301 301 301 300 299 298 299 299 300 302 302 302 302 301 297 303 303 302 301 300 300 296 298 298 298 298 298 297 293 296 296 296 297 297 297 297 297 297 297 296
Wind_Speed
14 12 7 12 15 13 13 14 15 13 3 16 18 17 4 2 7 8 9 8 7 8 10 11 12 11 12 12 12 11 11 11 11 6 5 8 10 10 10 8 4 5 6 10
12 13 14 10 14 13 15 13 14 13 13 6 8 3 5 7 6 6 9 10 10 11 13 13 12 12 12 13 12 12 12 12 10 12 3 7 7 8 8 8 9 6 7 8
13 5 8 13 16 15 17 16 12 12 10 10 3 3 5 6 8 9 8 10 12 13 13 12 12 12 13 14 14 13 13 12 12 12 7 7 7 8 8 8 7 8 9 6
11 11 9 4 6 6 10 16 10 7 4 3 4 8 10 11 9 8 10 11 13 13 14 14 14 14 14 14 14 15 14 14 12 12 14 8 3 10 7 8 8 8 7 9
5 10 9 9 6 1 7 7 4 6 5 3 2 5 10 10 8 9 11 12 13 14 15 15 16 15 14 15 14 14 16 15 15 13 12 14 8 5 8 7 9 8 8 8
10 3 5 6 6 4 3 7 6 3 4 5 5 9 4 8 10 11 13 14 14 15 17 17 16 17 16 17 16 15 14 16 16 15 12 13 14 8 8 6 9 8 9 9
10 6 9 9 3 2 9 6 7 7 5 8 9 10 13 15 14 15 16 16 14 14 16 14 11 11 12 13 14 17 17 15 14 16 15 13 13 10 7 7 10 9 8 8
11 7 9 4 3 6 5 1 4 8 11 12 11 11 14 15 14 16 16 15 12 12 13 14 10 11 12 13 14 16 16 17 16 15 14 13 13 11 11 10 8 10 9 9
3 2 2 1 4 2 5 9 10 10 11 10 9 11 15 13 13 13 14 14 12 9 11 12 13 9 9 12 11 11 13 15 13 15 13 15 15 10 10 12 9 9 9 7
5 6 5 3 7 3 4 7 9 10 12 12 13 14 13 13 13 14 13 12 12 15 15 12 12 11 9 10 11 14 11 16 15 13 12 13 12 8 10 12 10 9 7 6
9 10 10 6 2 7 9 8 10 9 12 11 13 14 14 13 11 15 13 12 13 13 13 17 14 15 12 10 13 14 12 12 11 10 11 12 10 8 10 9 5 5 5 5
8 7 7 3 1 4 8 11 11 11 12 13 13 14 15 14 12 12 13 13 14 16 14 16 14 11 13 12 12 12 12 10 9 9 8 9 8 7 6 2 5 3 2 6
4 7 5 9 9 9 7 9 10 11 13 14 14 13 14 13 12 13 14 15 15 11 13 11 8 9 10 9 9 10 11 13 8 10 10 10 9 5 10 2 3 6 6 4
5 6 9 8 4 5 8 9 9 10 12 11 11 11 11 12 13 13 14 16 15 12 14 8 8 10 10 10 12 12 11 9 11 9 9 10 9 9 6 8 5 6 8 6
8 7 7 6 3 1 5 7 11 10 11 12 11 11 10 11 12 13 14 14 14 11 12 9 10 9 9 10 11 12 11 10 6 8 9 8 6 9 9 13 7 5 6 5
5 3 1 2 3 5 6 8 9 10 11 12 11 11 12 10 12 11 13 14 11 13 10 11 9 9 10 14 16 13 7 10 8 10 9 9 8 8 7 7 8 7 3 4
7 2 2 4 3 2 7 7 6 8 10 11 11 14 12 11 11 10 12 13 14 13 12 8 11 13 15 14 14 10 8 9 6 10 9 6 5 6 5 5 6 4 3 4
3 3 5 3 3 7 5 6 6 6 8 10 11 10 9 10 10 11 11 12 12 11 9 12 12 15 15 18 14 10 11 9 10 10 8 4 7 1 4 4 3 5 5 6
2 2 5 4 5 5 4 5 5 8 6 8 9 9 9 8 8 9 10 11 8 9 11 14 15 13 17 15 13 8 8 9 8 10 7 3 4 2 3 3 4 6 7 6
2 3 6 4 4 2 3 5 5 7 8 8 10 8 9 11 10 10 8 8 8 9 13 12 11 15 13 14 16 8 8 5 7 6 3 1 3 7 7 8 9 8 8 7
2 5 2 3 5 2 1 5 6 7 8 8 10 8 7 8 9 9 6 5 8 12 12 10 13 10 9 11 11 9 3 3 2 3 6 7 8 9 9 9 9 9 8 8
2 5 4 5 4 4 5 5 6 9 9 11 11 11 10 7 8 7 4 4 8 8 7 8 11 11 10 11 9 9 10 10 10 10 9 9 9 9 9 9 9 8 7 6
3 4 3 4 4 3 4 5 4 6 10 9 7 7 4 4 4 3 4 6 6 8 5 9 6 8 10 9 10 11 12 12 11 11 10 10 10 9 9 9 7 7 6 5
8 4 3 6 4 3 4 3 5 4 9 8 12 5 5 5 3 2 4 4 5 4 8 8 5 5 6 9 10 10 10 10 10 11 11 11 9 9 8 5 5 6 7 8
7 4 3 3 3 2 1 4 3 4 7 9 9 9 6 3 3 4 5 5 6 4 8 6 6 4 7 8 9 9 10 9 9 9 7 8 9 7 6 8 10 9 9 9
6 6 4 4 4 2 4 1 6 5 5 7 7 6 5 3 5 6 6 7 9 8 8 10 10 10 10 11 9 12 11 8 6 7 10 9 10 10 9 9 10 9 9 9
7 2 4 3 3 5 6 5 3 5 6 6 6 6 6 6 7 7 8 6 6 6 10 9 10 9 8 11 13 12 12 10 10 10 9 9 9 8 10 10 9 9 9 9
Wind_Direction
280 290 278 284 284 278 246 260 268 264 309 191 212 227 140 307 289 299 305 317 333 336 330 328 331 331 326 335 324 321 317 316 307 312 332 335 338 341 341 341 329 282 277 280
286 272 267 276 275 268 262 267 270 276 275 292 292 44 284 249 264 291 306 319 342 328 324 320 318 318 322 311 316 316 306 303 305 297 316 303 319 324 328 336 336 327 306 293
270 332 300 266 257 256 254 245 252 261 275 21 48 227 269 307 303 286 317 352 331 319 314 318 316 310 306 310 308 301 301 294 291 287 266 295 305 310 327 323 318 314 313 282
278 286 262 40 24 309 285 274 237 232 280 189 340 355 320 289 309 9 346 325 317 314 313 308 308 307 304 300 303 300 294 292 287 287 292 241 265 300 309 310 315 315 308 304
255 263 276 284 166 252 266 196 211 245 224 123 48 335 279 50 18 341 322 310 306 313 313 315 308 299 297 294 292 293 292 287 285 280 278 293 232 243 281 295 297 293 293 298
275 233 248 76 59 28 341 248 64 93 321 14 331 277 162 27 340 320 321 324 324 317 304 299 301 307 304 299 292 286 287 292 292 289 280 280 288 249 262 276 276 284 304 304
244 254 293 114 105 5 247 65 41 31 347 314 307 319 327 320 325 341 315 322 326 308 304 299 296 308 304 299 297 292 292 286 284 284 282 275 271 266 258 266 278 286 292 290
216 237 245 79 154 272 59 292 318 350 333 312 310 313 312 329 321 321 317 309 314 314 300 306 294 293 283 282 282 289 295 294 287 276 273 269 259 239 245 252 261 261 260 268
324 256 60 195 310 78 322 321 321 323 328 315 311 301 302 303 312 298 314 312 321 303 299 287 276 250 260 271 289 288 282 280 280 297 290 273 267 244 240 239 240 262 263 280
246 256 245 247 284 331 271 282 320 336 333 317 299 290 286 309 299 303 309 295 300 309 294 285 289 294 275 283 295 288 264 268 275 263 271 278 272 263 235 250 243 247 267 286
288 278 293 271 282 2 350 319 301 313 304 298 300 302 306 290 292 293 297 305 299 297 298 297 293 299 292 296 299 297 292 280 284 281 258 263 268 257 245 254 356 309 290 316
258 345 320 359 39 289 283 302 341 332 309 306 306 306 309 308 306 305 310 304 304 302 306 296 291 291 299 301 309 303 303 292 295 291 268 276 261 236 227 124 131 197 309 288
268 275 293 301 287 300 343 316 323 324 322 331 320 308 312 318 309 327 301 292 296 294 299 292 301 289 292 301 301 305 299 302 289 272 289 282 258 240 201 168 232 219 190 211
240 252 258 268 328 334 333 359 353 322 316 303 304 317 308 305 302 303 301 302 306 309 289 315 327 322 330 328 324 317 302 291 296 293 297 278 265 245 231 258 260 207 206 221
236 242 297 344 41 325 5 323 324 325 328 326 325 315 305 302 301 303 307 299 305 292 307 319 322 327 314 316 305 301 314 309 306 293 285 282 286 281 257 230 217 238 185 209
274 266 16 358 341 23 355 337 340 353 338 334 317 321 328 320 303 303 311 316 324 313 306 317 327 310 322 318 312 307 301 282 269 285 279 283 294 303 268 245 227 231 222 208
255 145 272 340 12 2 9 359 343 332 328 328 334 329 327 327 323 327 325 331 319 308 306 329 325 341 332 317 318 308 311 301 281 281 281 273 293 320 294 238 219 183 160 68
127 18 56 46 348 22 6 34 326 336 3 337 335 323 325 336 330 326 328 326 323 322 344 343 350 342 329 326 329 312 294 286 289 274 278 274 266 25 305 303 151 162 144 113
100 5 77 97 47 51 34 344 329 23 1 357 340 343 335 318 312 323 328 323 327 325 335 332 353 352 342 326 316 294 271 257 257 261 258 269 256 99 319 43 93 88 86 73
90 89 106 105 72 76 45 320 15 358 28 324 332 357 355 340 340 329 335 318 300 307 333 332 330 2 336 331 318 308 294 219 237 243 263 270 41 78 86 74 76 78 79 78
100 135 143 105 130 62 41 349 350 350 359 345 345 352 346 340 331 332 340 330 324 332 321 298 28 1 344 337 333 335 75 130 183 343 72 83 78 72 74 77 79 80 78 72
181 170 161 127 182 90 33 342 342 346 344 4 5 19 22 354 351 352 1 328 317 306 321 26 31 358 354 346 7 25 45 54 62 63 65 69 73 75 79 81 78 76 74 69
138 138 127 149 126 69 10 337 3 331 2 15 30 19 2 321 307 327 342 331 322 348 1 47 36 10 355 21 28 39 47 52 58 63 67 69 68 73 74 75 78 82 80 69
108 135 144 100 143 113 335 342 306 31 32 23 40 66 6 14 30 322 277 293 241 333 45 30 51 16 8 49 39 39 46 52 55 60 65 66 69 71 71 68 90 120 109 80
138 135 136 123 132 192 316 295 278 62 45 57 49 51 45 355 343 1 52 53 34 63 59 58 56 72 72 101 85 72 58 55 61 66 67 76 77 84 79 63 76 64 69 75
92 94 109 118 63 25 151 264 52 59 42 55 49 65 41 71 61 48 43 47 50 50 54 47 37 58 43 62 82 88 89 82 69 63 67 72 74 71 77 77 77 70 69 72
107 60 106 82 105 55 35 42 64 57 38 48 62 40 38 33 57 38 57 44 33 33 65 58 67 64 51 79 77 71 78 72 57 63 73 72 75 71 69 72 69 70 67 63